Location: Estes P
(40.3770°N, 105.5210°W)
Time: 11:16:42
(UTC-06:00)

ISS - Visible Passes

Search period start: 25 June 2018 00:00
Search period end: 05 July 2018 00:00
Orbit: 403 x 407 km, 51.6° (Epoch: 26 June)

Date Brightness Start Highest point End Pass type
(mag) Time Alt. Az. Time Alt. Az. Time Alt. Az.
30 Jun -1.5 04:52:36 10° S 04:54:48 17° SE 04:57:01 10° E visible
02 Jul -3.0 04:43:51 11° SSW 04:46:48 41° SE 04:49:55 10° ENE visible
03 Jul -2.0 03:53:47 18° SSE 03:54:48 21° SE 03:57:22 10° E visible
04 Jul -1.0 03:03:39 10° ESE 03:03:39 10° ESE 03:03:53 10° ESE visible
04 Jul -3.8 04:36:18 15° WSW 04:38:55 76° NW 04:42:11 10° NE visible
